Regional Weather Roundup
Issued by NWS

Home | Current Version | Previous Version | Text Only | Print | Product List | Glossary Off
Versions: 1 2 3 4 5 6 7 8 9 10 11 12 13 14 15 16 17 18 19 20 21 22 23 24 25 26 27 28 29 30 31 32 33 34 35 36 37 38 39 40 41 42 43 44 45 46 47 48 49 50

000
ASUS43 KMKX 251021
RWRWI

WISCONSIN REGIONAL WEATHER ROUNDUP
NATIONAL WEATHER SERVICE MILWAUKEE/SULLIVAN WI
500 AM CDT THU AUG 25 2016

NOTE: "FAIR" INDICATES FEW OR NO CLOUDS BELOW 12,000 FEET WITH NO
SIGNIFICANT WEATHER AND/OR OBSTRUCTIONS TO VISIBILITY.

WIZ001-002-006>008-014>016-023>028-251100-
NORTHWEST WISCONSIN

CITY           SKY/WX    TMP DP  RH WIND       PRES   REMARKS
SUPERIOR ARPT  CLEAR     56  55  97 SW7       29.94F
ASHLAND        CLEAR     55  53  93 SW8       29.95S
HAYWARD        PTCLDY    54  52  93 S3        29.99S
SIREN          CLEAR     59  56  91 W6        29.99F
CUMBERLAND     CLEAR     55  54  94 W5        30.01S
RICE LAKE      CLEAR     55  53  94 CALM      30.02S FOG
CHETEK         NOT AVBL
LADYSMITH      CLEAR     60  57  89 W6        30.01F
EAU CLAIRE     CLOUDY    62  59  90 S3        30.00S
MENOMONIE      MOCLDY    63  59  86 W6        30.01S
NEW RICHMOND   CLEAR     58  57  99 CALM      30.02S
OSCEOLA        CLEAR     57  57 100 CALM      30.03F
$$

WIZ003>005-009-010-017-018-251100-
NORTH CENTRAL WISCONSIN

CITY           SKY/WX    TMP DP  RH WIND       PRES   REMARKS
MANITOWISH WTR NOT AVBL
ARBOR VITAE    CLOUDY    57  55  94 CALM      29.99S
WOODRUFF       CLOUDY    57  55  94 CALM      29.99S
RHINELANDER    CLOUDY    58  58 100 W5        29.99S
EAGLE RIVER    CLOUDY    56  56 100 SW5       29.97F
LAND O LAKES   CLOUDY    53  53  99 CALM      29.98S
PHILLIPS       CLEAR     56  56  98 CALM      29.99S
TOMAHAWK       CLOUDY    57  55  94 CALM      30.00F
MEDFORD        PTCLDY    57  57 100 W5        30.00F
MERRILL        CLOUDY    58  58  99 W5        30.00S
$$

WIZ029-030-035-036-043>047-251100-
CENTRAL WISCONSIN

CITY           SKY/WX    TMP DP  RH WIND       PRES   REMARKS
WAUSAU         CLEAR     60  57  89 NW6       29.98S
MOSINEE        PTCLDY    59  57  94 NW8       30.01R
MARSHFIELD     CLOUDY    60  56  86 W3        30.00S
STEVENS POINT  CLOUDY    60  57  88 W3        30.01R
WAUPACA        CLOUDY    66  63  90 CALM      29.98R
WAUTOMA        CLOUDY    64  61  90 W5        30.00R
WISC RAPIDS    CLOUDY    62  59  90 NW6       30.01R
CAMP DOUGLAS   CLOUDY    60  58  94 W7        30.01R
$$

WIZ011>013-019>022-031-037>040-048>050-251100-
NORTHEAST WISCONSIN

CITY           SKY/WX    TMP DP  RH WIND       PRES   REMARKS
ANTIGO         CLOUDY    57  56  97 CALM      30.00R
SHAWANO        CLOUDY    64  60  85 W5        29.96S
OCONTO         NOT AVBL
STURGEON BAY   CLOUDY    66  64  93 W3        29.95R
GREEN BAY      PTCLDY    64  64 100 W6        29.96R
MANITOWOC      PTCLDY    67  63  87 NW6       29.95S
APPLETON       PTCLDY    64  64 100 W9        29.96S
CLINTONVILLE   CLOUDY    63  59  88 W5        29.98R
OSHKOSH        CLOUDY    65  62  90 W7        29.96S
$$

WIZ032>034-041-042-053>061-251100-
SOUTHWEST WISCONSIN

CITY           SKY/WX    TMP DP  RH WIND       PRES   REMARKS
LA CROSSE      CLEAR     64  32  30 N3        30.01S
SPARTA         PTCLDY    56  56 100 CALM      30.02S
VIROQUA        CLEAR     60  59  96 CALM      30.03S
BOSCOBEL       CLOUDY    66  63  90 CALM      30.01S
PRAIRIE DU CHI CLOUDY    64  61  88 CALM      30.02S
PLATTEVILLE    MOCLDY    65  64  96 NW6       30.02S
$$

WIZ056-057-062-063-064-067-068-251100-
SOUTH CENTRAL WISCONSIN

CITY           SKY/WX    TMP DP  RH WIND       PRES   REMARKS
REEDSBURG      NOT AVBL
BARABOO/DELLS  CLOUDY    64  60  88 NW3       30.00S
LONE ROCK      CLOUDY    66  64  93 W5        30.01R
MINERAL POINT  MOCLDY    66  63  88 CALM      30.02R
MADISON        CLOUDY    65  61  87 NW3       29.99R
MIDDLETON      CLOUDY    65  65  99 W6        30.01R
WATERTOWN      MOCLDY    68  68  98 NW3       29.98S
MONROE         CLOUDY    68  64  88 NW5       30.00R
JANESVILLE     DRIZZLE   70  70 100 N5        29.98R
$$

WIZ051-052-058>065-066-070>072-251100-
SOUTHEAST WISCONSIN

CITY           SKY/WX    TMP DP  RH WIND       PRES   REMARKS
MILWAUKEE      LGT RAIN  72  67  84 N6        29.97R
WAUKESHA       LGT RAIN  66  64  94 NE3       29.98F
MILWAUKEE/TIMM DRIZZLE   70  64  83 CALM      29.97F
RACINE         LGT RAIN  71  69  93 N5        29.98F
BURLINGTON     LGT RAIN  68  68  98 CALM      29.97S
KENOSHA        RAIN      69  67  93 SW6       29.98R FOG
FOND DU LAC    CLOUDY    66  63  90 NW8       29.96F
SHEBOYGAN      MOCLDY    69  65  86 NW6       29.95F
WEST BEND      CLOUDY    68  64  88 NW5       29.97R
JUNEAU         CLOUDY    66  63  90 NW5       29.98S
$$

LSZ147-162-251100-
LAKE SUPERIOR

STATION/POSITION TIME  TEMP    WIND        PRES    WAVE
                       AIR SEA DIR/SP/G            HT/PER
                 (UTC) (F)     (DEG/KT/KT) (MB)    (FT/S)
W MID LAKE BUOY  0950   68 68  260/ 16/ 17 1011.5R   3/ 4
DEVILS ISLAND    1000   66     250/ 16/ 19 1012.7F
PORT WING        0940   62     200/  5/  7 1013.9S
SAXON HARBOR     0900   63     200/  7/ 11 1013.5S
$$

LMZ867-665-643>646-251100-
LAKE MICHIGAN

STATION/POSITION TIME  TEMP    WIND        PRES    WAVE
                       AIR SEA DIR/SP/G            HT/PER
                 (UTC) (F)     (DEG/KT/KT) (MB)    (FT/S)
CHAMBERS ISLAND  0900   67     230/  3/  8 1012.5S
S GREEN BAY BUOY 0900   70 72  270/ 14/ 16 1012.9R
N MID LAKE BUOY  0950   69 69  260/ 10/ 12 1011.8R   2/ 6
NORTHPORT PIER   0900   69     290/  5/ 10 1012.2S
SISTER BAY       0907   70     300/  9/ 11   N/A
KEWAUNEE LAKESHO 0900   67     280/  4/  6 1013.2R
SHEBOYGAN LAKESH 1000   71     290/  8/ 10 1013.3F
PORT WASHINGTON  0900   73     310/  4/  6 1014.9R
ATWATER BUOY     1000   66 55  270/  2/  6   N/A
MILWAUKEE LAKESH 0910   69     170/  9/  9   N/A
S MID LAKE BUOY  0950   72 74  320/ 10/ 12 1013.5R   1/ 3
KENOSHA   LAKESH 1000   69     150/  5/  6 1014.2F
$$

TC  - TEMPERATURE IN CELSIUS
VSB - VISIBILITY IN STATUTE MILES
WCI - WIND CHILL INDEX
HX  - HEAT INDEX





USA.gov is the U.S. government's official web portal to all federal, state and local government web resources and services.